Regional Weather Roundup
Issued by NWS Pendleton, OR

Home | Current Version | Previous Version | Text Only | Print | Product List | Glossary On
Versions: 1 2 3 4 5 6 7 8 9 10 11 12 13 14 15 16 17 18 19 20 21 22 23 24 25 26 27 28 29 30 31 32 33 34 35 36 37 38 39 40 41 42 43 44 45 46 47 48 49 50
329
ASUS46 KPDT 221425
RWRPDT
PENDLETON REGIONAL WEATHER ROUNDUP
NATIONAL WEATHER SERVICE PENDLETON OREGON
600 AM PST WED FEB 22 2017

NOTE: FAIR INDICATES FEW OR NO CLOUDS BELOW 12,000 FEET WITH NO
SIGNIFICANT WEATHER AND/OR OBSTRUCTIONS TO VISIBILITY.

# INDICATES UNOFFICIAL STATION AND DATA

WAZ520-221510-
EAST SLOPES OF WASHINGTON CASCADES

CITY            SKY/WX      TMP DP  RH  WIND    PRES   REMARKS
#CLE ELUM HS    N/A         33  24  69  NW5     30.03S
#CLE ELUM LAKE  N/A         N/A N/A N/A SW2     30.10R
#GLENWOOD       N/A         26  25  96  CALM    30.15R
#MANASTASH CYN  N/A         26  21  81  CALM    30.02R
#NELSON 3SW     N/A         29  22  75  CALM    30.35S
#NILE           N/A         31  24  75  W1      29.39R
#TEANAWAY 4NE   N/A         31  24  75  CALM    N/A
#TROUT LAKE 1NE N/A         33  26  75  CALM    30.14S
#TROUT LAKE 1E  N/A         32  26  78  CALM    30.11S
$$

WAZ521-221510-
SIMCOE HIGHLANDS

CITY            SKY/WX      TMP DP  RH  WIND    PRES   REMARKS
#BICKLETON HS   N/A         29  21  72  N8      29.67R
#CENTERVILLE 1SWN/A         29  25  85  W7      30.13R
#GOLDENDALE 1NE N/A         28  22  78  CALM    N/A
#GOLDENDALE 4W  N/A         28  14  55  W3      30.11F
#LYLE 6NE       N/A         33  30  89  W3      30.13R
#PITT 4SE       N/A         29  27  92  W9      30.18S
$$

WAZ026-221510-
KITTITAS VALLEY

CITY            SKY/WX      TMP DP  RH  WIND    PRES   REMARKS
ELLENSBURG AP   MOCLDY      31  23  72  NW5     30.08R
#ELLENSBURG CWU N/A         33  25  72  CALM    30.08R
#ELLENSBURG 3NE N/A         31  25  78  CALM    28.16R
#ELLENSBURG 1E  N/A         30  N/A N/A CALM    N/A
#KITTITAS 4N    N/A         30  23  75  NW3     30.09R
#KITTITAS 3S    N/A         31  25  78  CALM    30.14R
#THORP 6N       N/A         32  25  75  W20G32  30.13S WCI 20
$$

WAZ027-221510-
YAKIMA VALLEY

CITY            SKY/WX      TMP DP  RH  WIND    PRES   REMARKS
SUNNYSIDE AP    N/A         28  28  100 CALM    30.12R
YAKIMA AIRPORT  MOCLDY      32  23  69  SW3     30.12R
YAKIMA-VAGABOND MOCLEAR     29  22  75  E7      30.08R
#DONALD 2NE     N/A         29  16  58  E1      28.96R
#GRANDVIEW      N/A         28  27  96  CALM    30.16S
#MABTON         N/A         28  27  96  CALM    30.12R
#MOXEE 2E       N/A         33   0  24  N2      30.08R
#NACHES 2SW     N/A         33  25  72  W1      30.08R
#TERRACE HTS    N/A         33  26  75  CALM    30.11R
#TOPPENISH      N/A         27  26  96  CALM    30.07R
#WEST VALLEY    N/A         32  23  69  CALM    30.13R
#W YAKIMA       N/A         33  24  69  CALM    30.15R
#WHITE SWAN 5E  N/A         27  25  92  CALM    30.15R
#WILEY CITY 3W  N/A         26  19  74  CALM    30.06R
$$

WAZ028-221510-
LOWER COLUMBIA BASIN...WASHINGTON

CITY            SKY/WX      TMP DP  RH  WIND    PRES   REMARKS
HANFORD         MOCLDY      38  25  59  W13     30.11R WCI 30
PASCO           CLOUDY      38  33  82  SW5     30.13S
PROSSER AWOS    N/A         30  30  100 CALM    30.15S
RICHLAND AWOS   MOCLDY      37  34  89  W3      30.13S
#BENTON CITY    N/A         35  33  92  NW1     30.05S
#CONNELL 5N     N/A         30  29  96  SW1     30.14R
#CONNELL 5NW    N/A         32  31  96  SW2     30.10R
#ELTOPIA 6NW    N/A         36  31  82  SW7     29.06R
#KAHLOTUS       N/A         34  32  92  W9      30.12R
#KENNEWICK 3S   N/A         38  33  82  CALM    30.14S
#PATERSON       N/A         34  32  92  CALM    30.12R
#SAGEMOOR 2W    N/A         36  29  75  NW1     29.98
#TOUCHET 2S     N/A         39  32  76  SW15    30.12R WCI 31
#WEST PASCO     N/A         38  35  89  CALM    30.12S
$$

WAZ029-221510-
FOOTHILLS OF THE BLUES...WASHINGTON

CITY            SKY/WX      TMP DP  RH  WIND    PRES   REMARKS
WALLA WALLA AP  CLOUDY      37  34  89  S9      30.11S
#CLYDE 6NW      N/A         35  33  92  CALM    30.13R
#DAYTON SCHOOL  N/A         35  27  72  SW5     30.11R
#LOWDEN 2SE     N/A         40  33  76  CALM    30.10R
#PLEASANT VIEW 1N/A         32  31  96  S12     30.16S WCI 23
#PRESCOTT       N/A         37  35  92  CALM    30.13R
#WHITMAN COLLEGEN/A         37  34  89  SE1     30.20S
#WAITSBURG 5S   N/A         33  32  96  S9      30.24S
#WALLA WALLA 5E N/A         37  35  92  S12     N/A    WCI 29
#WHITMAN MISSIONN/A         40  35  82  CALM    30.16S
$$

WAZ030-221510-
BLUE MOUNTAINS...WASHINGTON

CITY            SKY/WX      TMP DP  RH  WIND    PRES   REMARKS
#DIXIE 5SE      N/A         30  29  96  S5      29.96S
#SKI BLUEWOOD   N/A         25  23  92  CALM    29.95F
$$

ORZ009-041-WAZ024-221510-
COLUMBIA RIVER GORGE

CITY            SKY/WX      TMP DP  RH  WIND    PRES   REMARKS
HOOD RIVER AP   CLOUDY      37  32  82  W8      30.17S
THE DALLES AP   PTCLDY      36  30  79  CALM    30.16S
#ARLINGTON AIRPON/A         34  30  85  W2      30.16R
#ARLINGTON HS   N/A         36  29  75  CALM    30.06R
#CELILO DOT     N/A         39  27  62  SW7     N/A
#LYLE           N/A         39  35  85  N2      30.18S
#MOSIER 1S      N/A         36  23  59  CALM    30.12S
#MURDOCK        N/A         38  34  85  NW7     30.16S
#RUFUS DOT      N/A         41  30  65  W14     N/A    WCI 33
#SMITHVILLE     N/A         38  33  82  N3      30.11S

$$

ORZ510-221510-
NORTH CENTRAL OREGON

CITY            SKY/WX      TMP DP  RH  WIND    PRES   REMARKS
#CHENOWITH 1W   N/A         31  29  92  W16     N/A    WCI 20
#COW CYN RST AREN/A         29  26  88  CALM    N/A
#GRASS VALLEY 1SN/A         28  25  88  W1      30.22R
#KENT DOT       N/A         28  20  71  N6      N/A
#MAUPIN SCHOOL  N/A         31  28  88  CALM    30.18R
#MORO SCHOOL    N/A         34  29  82  W12     30.15S WCI 25
#SHANIKO 5WSW   N/A         28  17  63  N10     N/A
#SHANIKO 4NW    N/A         27  22  81  W13     30.03R WCI 16
#TYGH VALLEY 2NEN/A         30  27  88  CALM    30.16R
#WAPANITIA AIRPON/A         31  27  85  CALM    30.17R
#WASCO DOT      N/A         29  25  85  NE6     N/A
#WASCO 5NE      N/A         30  26  85  N1      30.15R
$$

ORZ511-221510-
CENTRAL OREGON

CITY            SKY/WX      TMP DP  RH  WIND    PRES   REMARKS
BEND AIRPORT    MOCLDY      27  25  92  CALM    30.05F
MADRAS AIRPORT  CLOUDY      28  28  100 CALM    30.11S
PRINEVILLE AP   MOCLDY      23  21  92  MISG    30.06S WCI  2
REDMOND AIRPORT CLOUDY      24  20  84  CALM    30.06S
#ASHWOOD SCHOOL N/A         28  26  92  CALM    30.04S
#BEND 1SW       N/A         27  25  92  CALM    N/A
#BEND-AWBREY    N/A         28  26  92  CALM    30.14R
#BEND-KIM LN    N/A         23  21  92  CALM    30.11R
#CULVER         N/A         27  24  88  CALM    30.09S
#CULVER 8W      N/A         29  25  85  CALM    30.06S
#LAKE BILLY CHINN/A         29  N/A N/A CALM    30.19S
#POWELL BUTTE 3EN/A         23  22  96  E1      N/A
#POWELL BUTTE   N/A         29  23  78  SW2     30.00R
#WARM SPRINGS   N/A         29  27  92  CALM    30.08S

$$


ORZ509-221510-
EAST SLOPES OF OREGON CASCADES

CITY            SKY/WX      TMP DP  RH  WIND    PRES   REMARKS
SISTERS AWOS    N/A         23  21  92  CALM    30.02S
#BLUE BOX PASS  N/A         24  N/A N/A CALM    N/A
#CAMP SHERMAN   N/A         25  22  88  CALM    30.24R
#LA PINE 4NW    N/A         24  21  88  CALM    30.16S
#LAVA BUTTE DOT N/A         25  22  88  S12     N/A    WCI 14
#SISTERS ODOT   N/A         23  N/A N/A CALM    N/A
#SISTERS 3N     N/A         24  19  81  CALM    30.05S
#SUNRIVER       N/A         25  24  96  CALM    30.14S
#TUMALO 3W      N/A         28  25  88  CALM    30.03R
#WANOGA BUTTE D N/A         18  17  96  NE2     N/A

$$

ORZ044-221510-
LOWER COLUMBIA BASIN...OREGON

CITY            SKY/WX      TMP DP  RH  WIND    PRES   REMARKS
HERMISTON       MOCLDY      37  32  82  SW3     30.12R
#BOARDMAN SCHOOLN/A         35  31  85  SW1     30.13R
#BOARDMAN 8SW   N/A         35  31  85  SW6     30.13S
#ECHO 8SW       N/A         36  30  79  SW2     30.13R
#I-84 EX 198 DOTN/A         36  28  72  N7      N/A
#IONE SCHOOL    N/A         37  22  54  SW6     30.16S
#UMATILLA       N/A         38  32  79  CALM    30.07S
$$

ORZ507-221510-
NORTHERN FOOTHILLS OF THE BLUES

CITY            SKY/WX      TMP DP  RH  WIND    PRES   REMARKS
PENDLETON AIRPT CLOUDY      36  29  75  W8      30.10R
#ADAMS 3WNW     N/A         35  30  82  SW7     30.15R
#ATHENA         N/A         35  31  85  SW3     30.18R
#HELIX SCHOOL   N/A         34  31  89  N3      30.15S
#HELIX 3N       N/A         33  31  92  SW3     30.05S
#HOLDMAN 5SE    N/A         34  31  89  CALM    30.09S
#HOLDMAN 6E     N/A         33  30  89  SW7     29.95S
#M-F FERNDALE   N/A         37  32  82  CALM    30.09S
#M-F GROVE ELEM N/A         37  30  75  S5      30.08S
#M-FREEWATER 5SEN/A         36  31  82  CALM    30.10S
#PENDLETON DNTN N/A         36  35  96  W2      30.10S
#PDT AQUATIC CTRN/A         37  32  82  CALM    30.10S
#PDT SUNRIDGE   N/A         35  30  82  CALM    30.14R
#PENDLETON 7NW  N/A         35  29  78  SW1     32.03S
#PILOT ROCK 1S  N/A         34  22  61  CALM    30.10S
#PILOT ROCK     N/A         34  28  78  SE2     30.11R
#TUTUILLA       N/A         33  30  89  CALM    30.15R
#UMAPINE 2E     N/A         39  34  82  SW5     30.10R
#WESTON SCHOOL  N/A         34  30  85  W2      30.01F

$$

ORZ508-221510-
SOUTHERN FOOTHILLS OF THE BLUES

CITY            SKY/WX      TMP DP  RH  WIND    PRES   REMARKS
LEXINGTON       MOCLDY      34  28  78  SW8     30.13S
#AJAX           N/A         32  18  56  S8      30.22S
#CONDON SCHOOL  N/A         29  26  88  W2      30.01S
#CONDON 5W      N/A         27  22  81  W5      30.01S
#HEPPNER EOC    N/A         30  26  85  CALM    30.08S
#HEPPNER 4NE    N/A         30  26  85  W7      30.14S
#LEXINGTON 2SE  N/A         34  29  82  W3      30.08S
#MIKKALO        N/A         34  25  69  W7      30.20S
#OLEX 4N        N/A         34  29  82  SW9     30.09S
#RUGGS 5NE      N/A         29  26  88  W6      30.20S
#RUGGS 2SW      N/A         28  24  85  W3      30.17R

$$

ORZ502-503-221510-
BLUE MOUNTAINS

CITY            SKY/WX      TMP DP  RH  WIND    PRES   REMARKS
MEACHAM         CLOUDY      27  23  85  CALM    30.02R
#BATTLE MTN DOT N/A         24  20  84  CALM    N/A
#GREENHORN 9SW  N/A         27  27  100 CALM    30.03R
#HEPPNER 15SE   N/A         22  20  92  CALM    30.27S
#LADD CYN SMT   N/A         30  25  81  N9      N/A
#LADD CREEK ODOTN/A         31  26  81  NE6     N/A
#LONG CREEK HS  N/A         30  30  100 CALM    N/A
#N POWDER DOT   N/A         30  27  88  NE13    N/A    WCI 20
#PIKES PEAK     N/A         27  26  96  NW12    27.99S WCI 16
#TROY SCHOOL    N/A         36  34  92  CALM    29.96S
#UKIAH          N/A         28  26  92  CALM    30.04R
#WESTON 4E      N/A         28  27  96  CALM    30.11S
$$

ORZ505-221510-
JOHN DAY BASIN

CITY            SKY/WX      TMP DP  RH  WIND    PRES   REMARKS
JOHN DAY        CLOUDY      32  29  89  CALM    30.03S
#ANTELOPE 9ESE  N/A         31  27  85  CALM    N/A
#DAYVILLE SCHOOLN/A         33  29  85  CALM    30.03S
#MITCHELL       N/A         29  26  88  CALM    30.22S
#MITCHELL 8NW   N/A         29  24  81  CALM    29.96S
#MONUMENT HS    N/A         31  29  92  CALM    30.04R
#MT. VERNON 5SE N/A         29  26  88  CALM    29.96F
#SPRAY SCHOOL   N/A         31  N/A N/A CALM    N/A
#WINLOCK        N/A         29  25  85  CALM    30.01S
$$

ORZ506-221510-
OCHOCO AND JOHN DAY HIGHLANDS

CITY            SKY/WX      TMP DP  RH  WIND    PRES   REMARKS
#HORSE RIDGE DO N/A         25  22  88  CALM    N/A
#PAULINA SCHOOL N/A         29  24  81  CALM    N/A
#PINE MTN OBS   N/A         20  19  96  CALM    N/A
#PRAIRIE CITY   N/A         30  27  88  CALM    30.19S
#SENECA         N/A         27  N/A N/A CALM    N/A
#SENECA 9NW     N/A         27  25  92  CALM    30.07S
$$

ORZ049-221510-
GRANDE RONDE VALLEY

CITY            SKY/WX      TMP DP  RH  WIND    PRES   REMARKS
LA GRANDE       PTCLDY      32  32  100 W8      30.04S
#COVE           N/A         31  29  92  CALM    30.07F
#COVE 6NW       N/A         33  28  82  CALM    30.11R
#ELGIN 3N       N/A         33  21  61  CALM    30.02R
#ELGIN 1E       N/A         33  26  75  W2      N/A
#IMBLER SCHOOL  N/A         32  26  78  CALM    30.01S
#ISLAND CITY 4N N/A         31  30  96  CALM    30.23S
#UNION 1S       N/A         33  28  82  CALM    30.11R
$$

ORZ050-221510-
WALLOWA COUNTY

CITY            SKY/WX      TMP DP  RH  WIND    PRES   REMARKS
JOSEPH AIRPORT  CLOUDY      30  30  100 MISG    30.00R
#IMNAHA SCHOOL  N/A         38  35  89  N5      30.05R
#JOSEPH 3N      N/A         29  24  81  CALM    30.02R
#JOSEPH 3W      N/A         27  24  88  CALM    29.82R
#LOSTINE        N/A         30  27  88  CALM    29.88S
#LOSTINE 3SE    N/A         30  28  92  CALM    30.05R
#MT HOWARD 8000 N/A         15  13  92  SW2     29.80S
#PROMISE 1S     N/A         29  27  92  E1      30.21S
#WALLOWA SCHOOL N/A         32  28  85  CALM    30.01S



$$



USA.gov is the U.S. government's official web portal to all federal, state and local government web resources and services.